Oxford, CT

5:18 PM EDT on August 20, 2017 (GMT -0400)
Waterbury-Oxford

Weather History for KOXC - December, 2012

Change the Weather History Date:

Saturday, December 1, 2012

  Actual Average Record
Temperature  
Mean Temperature 29 °F -  
Max Temperature 33 °F 42 °F 66 °F (2001)
Min Temperature 26 °F 27 °F 17 °F (1999)
Degree Days  
Heating Degree Days 36    
Moisture  
Dew Point 23 °F    
Average Humidity 77    
Maximum Humidity 93    
Minimum Humidity 51    
Precipitation  
Precipitation 0.00 in - - ()
Sea Level Pressure  
Sea Level Pressure 30.50 in    
Wind  
Wind Speed 7 mph (ENE)    
Max Wind Speed 10 mph    
Max Gust Speed 16 mph    
Visibility 5 miles    
Events Fog    
Averages and records for this station are not official NWS values.
T = Trace of Precipitation, MM = Missing Value Source: NWS Daily Summary

Daily Weather History Graph

Daily Weather History Graph

Search for Another Location

Airport or City:

Trip Planner

Search our weather history database for the weather conditions in past years. The results will help you decide how hot, cold, wet, or windy it might be!

Date:

Astronomy

Dec. 01, 2012 Rise Set
Actual Time 6:59 AM EST 4:23 PM EST
Civil Twilight 6:29 AM EST 4:54 PM EST
Nautical Twilight 5:54 AM EST 5:28 PM EST
Astronomical Twilight 5:21 AM EST 6:02 PM EST
Moon 7:11 PM EST (12/1) 9:10 AM EST (12/1)
Length of Visible Light 10h 25m
Length of Day
9h 23m
Waning Gibbous, 92% of the Moon is Illuminated
Dec 1
Waning Gibbous
Dec 6
Last Quarter
Dec 13
New
Dec 20
First Quarter
Dec 28
Full

Hourly Weather History & Observations

Time (EST) Temp. Windchill Dew Point Humidity Pressure Visibility Wind Dir Wind Speed Gust Speed Precip Events Conditions
12:15 AM 28.4 °F 21.2 °F 12.2 °F 51% 30.50 in 10.0 mi East 6.9 mph - N/A   Overcast
12:35 AM 28.4 °F 19.7 °F 12.2 °F 51% 30.49 in 10.0 mi ENE 9.2 mph - N/A   Overcast
12:55 AM 28.4 °F 20.4 °F 12.2 °F 51% 30.50 in 7.0 mi ENE 8.1 mph - N/A   Overcast
1:15 AM 28.4 °F 21.2 °F 14.0 °F 55% 30.51 in 10.0 mi ENE 6.9 mph - N/A   Overcast
1:35 AM 28.4 °F 22.2 °F 14.0 °F 55% 30.50 in 10.0 mi ENE 5.8 mph - N/A   Overcast
1:55 AM 28.4 °F 20.4 °F 15.8 °F 59% 30.51 in 9.0 mi ENE 8.1 mph - N/A   Overcast
2:15 AM 28.4 °F 20.4 °F 15.8 °F 59% 30.51 in 10.0 mi ENE 8.1 mph - N/A   Overcast
2:35 AM 28.4 °F 19.7 °F 15.8 °F 59% 30.51 in 10.0 mi ENE 9.2 mph - N/A   Overcast
3:15 AM 28.4 °F 20.4 °F 15.8 °F 59% 30.51 in 10.0 mi ENE 8.1 mph - N/A   Overcast
3:55 AM 28.4 °F 21.2 °F 17.6 °F 64% 30.50 in 10.0 mi ENE 6.9 mph - N/A   Overcast
4:15 AM 28.4 °F 19.1 °F 17.6 °F 64% 30.50 in 10.0 mi East 10.4 mph - N/A   Overcast
4:35 AM 28.4 °F 22.2 °F 19.4 °F 69% 30.50 in 10.0 mi NE 5.8 mph - N/A   Overcast
5:15 AM 28.4 °F 22.2 °F 17.6 °F 64% 30.51 in 10.0 mi ENE 5.8 mph - N/A   Overcast
5:35 AM 28.4 °F 20.4 °F 19.4 °F 69% 30.50 in 10.0 mi ENE 8.1 mph - N/A   Overcast
7:55 AM 26.6 °F 19.1 °F 19.4 °F 74% 30.53 in 10.0 mi ENE 6.9 mph 16.1 mph N/A   Overcast
8:45 AM 28.4 °F 20.4 °F 21.2 °F 74% 30.55 in 10.0 mi East 8.1 mph - N/A   Overcast
10:45 AM 28.4 °F 19.7 °F 23.0 °F 80% 30.55 in 10.0 mi East 9.2 mph - N/A   Overcast
11:45 AM 30.2 °F 21.9 °F 24.8 °F 80% 30.53 in 7.0 mi East 9.2 mph - N/A   Overcast
12:55 PM 30.2 °F 22.6 °F 26.6 °F 86% 30.52 in 5.0 mi ENE 8.1 mph - N/A   Overcast
1:20 PM 30.2 °F 22.6 °F 26.6 °F 86% 30.50 in 2.0 mi East 8.1 mph - N/A   Overcast
2:45 PM 30.2 °F 24.3 °F 26.6 °F 86% 30.49 in 2.0 mi East 5.8 mph - N/A   Overcast
3:45 PM 30.2 °F 25.4 °F 26.6 °F 86% 30.49 in 2.0 mi East 4.6 mph - N/A   Overcast
4:45 PM 30.2 °F 24.3 °F 26.6 °F 86% 30.50 in 1.0 mi ENE 5.8 mph - N/A   Overcast
5:45 PM 30.2 °F - 28.4 °F 93% 30.51 in 1.0 mi Calm Calm - N/A   Overcast
6:45 PM 30.2 °F 23.4 °F 28.4 °F 93% 30.51 in 0.8 mi East 6.9 mph - N/A   Overcast
7:45 PM 30.2 °F 25.4 °F 28.4 °F 93% 30.50 in 0.5 mi East 4.6 mph - N/A Fog Fog
8:45 PM 30.2 °F 25.4 °F 28.4 °F 93% 30.50 in 0.5 mi ENE 4.6 mph - N/A Fog Fog
9:15 PM 30.2 °F 23.4 °F 28.4 °F 93% 30.48 in 0.8 mi NE 6.9 mph - N/A   Overcast
9:35 PM 32.0 °F 27.5 °F 30.2 °F 93% 30.48 in 1.0 mi NE 4.6 mph - N/A   Overcast
9:55 PM 32.0 °F 25.6 °F 30.2 °F 93% 30.48 in 1.0 mi ENE 6.9 mph - N/A   Overcast
10:15 PM 32.0 °F 28.7 °F 30.2 °F 93% 30.47 in 0.8 mi ENE 3.5 mph - N/A   Overcast
10:35 PM 32.0 °F 24.8 °F 30.2 °F 93% 30.47 in 0.8 mi NE 8.1 mph - N/A   Overcast
10:55 PM 32.0 °F 25.6 °F 30.2 °F 93% 30.46 in 0.8 mi ENE 6.9 mph - N/A   Overcast
11:15 PM 32.0 °F 25.6 °F 30.2 °F 93% 30.46 in 0.8 mi ENE 6.9 mph - N/A   Overcast
11:35 PM 32.0 °F 25.6 °F 30.2 °F 93% 30.46 in 0.5 mi ENE 6.9 mph - N/A   Overcast
11:55 PM 33.8 °F 30.8 °F 30.2 °F 87% 30.46 in 0.8 mi ENE 3.5 mph - N/A   Overcast